Time,TemperatureF,DewpointF,PressureIn,WindDirection,WindDirectionDegrees,WindSpeedMPH,WindSpeedGustMPH,Humidity,HourlyPrecipIn,Conditions,Clouds,dailyrainin,SoftwareType,DateUTC
2013-04-27 00:02:00,55.0,45.0,-100.00,South,190,4.0,9.0,68,0.00,,,-99.99,,2013-04-27 05:02:00,
2013-04-27 00:12:00,55.0,45.0,-100.00,SSW,205,6.0,8.0,68,0.00,,,-99.99,,2013-04-27 05:12:00,
2013-04-27 00:22:00,55.0,45.0,-100.00,SSW,195,4.0,8.0,68,0.00,,,-99.99,,2013-04-27 05:22:00,
2013-04-27 00:32:00,55.0,45.0,-100.00,SSW,195,2.0,7.0,69,0.00,,,-99.99,,2013-04-27 05:32:00,
2013-04-27 00:42:00,54.0,45.0,-100.00,South,180,4.0,6.0,69,0.00,,,-99.99,,2013-04-27 05:42:00,
2013-04-27 00:52:00,54.0,45.0,-100.00,South,175,3.0,4.0,71,0.00,,,-99.99,,2013-04-27 05:52:00,
2013-04-27 01:02:00,54.0,45.0,-100.00,South,175,3.0,4.0,71,0.00,,,-99.99,,2013-04-27 06:02:00,
2013-04-27 01:12:00,53.0,44.0,-100.00,South,185,4.0,4.0,72,0.00,,,-99.99,,2013-04-27 06:12:00,
2013-04-27 01:22:00,53.0,44.0,-100.00,SSE,160,2.0,5.0,73,0.00,,,-99.99,,2013-04-27 06:22:00,
2013-04-27 01:32:00,52.0,45.0,-100.00,South,175,2.0,3.0,75,0.00,,,-99.99,,2013-04-27 06:32:00,
2013-04-27 01:41:00,52.0,45.0,-100.00,South,175,2.0,3.0,75,0.00,,,-99.99,,2013-04-27 06:41:00,
2013-04-27 01:51:00,51.0,45.0,-100.00,South,185,3.0,4.0,77,0.00,,,-99.99,,2013-04-27 06:51:00,
2013-04-27 02:01:00,51.0,45.0,-100.00,South,170,5.0,8.0,79,0.00,,,-99.99,,2013-04-27 07:01:00,
2013-04-27 02:11:00,51.0,45.0,-100.00,SSE,165,4.0,7.0,80,0.00,,,-99.99,,2013-04-27 07:11:00,
2013-04-27 02:21:00,50.0,45.0,-100.00,SE,145,2.0,4.0,81,0.00,,,-99.99,,2013-04-27 07:21:00,
2013-04-27 02:32:00,50.0,45.0,-100.00,SSE,150,2.0,4.0,82,0.00,,,-99.99,,2013-04-27 07:32:00,
2013-04-27 02:42:00,50.0,45.0,-100.00,SSE,160,2.0,3.0,83,0.00,,,-99.99,,2013-04-27 07:42:00,
2013-04-27 02:52:00,49.0,45.0,-100.00,South,175,1.0,4.0,85,0.00,,,-99.99,,2013-04-27 07:52:00,
2013-04-27 03:01:00,49.0,45.0,-100.00,South,175,1.0,4.0,85,0.00,,,-99.99,,2013-04-27 08:01:00,
2013-04-27 03:11:00,49.0,45.0,-100.00,SSW,195,1.0,2.0,86,0.00,,,-99.99,,2013-04-27 08:11:00,
2013-04-27 03:21:00,49.0,45.0,-100.00,SSE,160,1.0,2.0,87,0.00,,,-99.99,,2013-04-27 08:21:00,
2013-04-27 03:33:00,49.0,45.0,-100.00,SW,220,0.0,2.0,87,0.00,,,-99.99,,2013-04-27 08:33:00,
2013-04-27 03:41:00,48.0,45.0,-100.00,SW,220,0.0,0.0,88,0.00,,,-99.99,,2013-04-27 08:41:00,
2013-04-27 03:51:00,49.0,46.0,-100.00,East,100,0.0,1.0,89,0.00,,,-99.99,,2013-04-27 08:51:00,
2013-04-27 04:01:00,49.0,46.0,-100.00,East,100,0.0,1.0,89,0.00,,,-99.99,,2013-04-27 09:01:00,
2013-04-27 04:11:00,48.0,45.0,-100.00,East,100,0.0,0.0,90,0.00,,,-99.99,,2013-04-27 09:11:00,
2013-04-27 04:21:00,48.0,45.0,-100.00,SE,140,2.0,3.0,90,0.00,,,-99.99,,2013-04-27 09:21:00,
2013-04-27 04:33:00,47.0,45.0,-100.00,NW,315,1.0,3.0,91,0.00,,,-99.99,,2013-04-27 09:33:00,
2013-04-27 04:42:00,47.0,45.0,-100.00,NW,315,1.0,3.0,91,0.00,,,-99.99,,2013-04-27 09:42:00,
2013-04-27 04:53:00,46.0,44.0,-100.00,SW,225,1.0,2.0,93,0.00,,,-99.99,,2013-04-27 09:53:00,
2013-04-27 05:02:00,46.0,44.0,-100.00,SW,225,1.0,2.0,93,0.00,,,-99.99,,2013-04-27 10:02:00,
2013-04-27 05:12:00,45.0,44.0,-100.00,SSE,160,1.0,2.0,93,0.00,,,-99.99,,2013-04-27 10:12:00,
2013-04-27 05:22:00,45.0,44.0,-100.00,NW,305,2.0,3.0,94,0.00,,,-99.99,,2013-04-27 10:22:00,
2013-04-27 05:32:00,46.0,44.0,-100.00,North,0,1.0,2.0,94,0.00,,,-99.99,,2013-04-27 10:32:00,
2013-04-27 05:42:00,45.0,44.0,-100.00,NNW,345,0.0,2.0,94,0.00,,,-99.99,,2013-04-27 10:42:00,
2013-04-27 05:52:00,45.0,43.0,-100.00,South,175,1.0,3.0,94,0.00,,,-99.99,,2013-04-27 10:52:00,
2013-04-27 06:02:00,45.0,43.0,-100.00,South,175,1.0,3.0,94,0.00,,,-99.99,,2013-04-27 11:02:00,
2013-04-27 06:11:00,45.0,44.0,-100.00,South,175,1.0,1.0,95,0.00,,,-99.99,,2013-04-27 11:11:00,
2013-04-27 06:22:00,44.0,43.0,-100.00,SSE,150,1.0,2.0,95,0.00,,,-99.99,,2013-04-27 11:22:00,
2013-04-27 06:32:00,44.0,43.0,-100.00,SSE,160,1.0,2.0,95,0.00,,,-99.99,,2013-04-27 11:32:00,
2013-04-27 06:41:00,44.0,43.0,-100.00,SSE,160,1.0,2.0,95,0.00,,,-99.99,,2013-04-27 11:41:00,
2013-04-27 06:52:00,45.0,43.0,-100.00,NW,305,2.0,3.0,95,0.00,,,-99.99,,2013-04-27 11:52:00,
2013-04-27 07:01:00,45.0,43.0,-100.00,NW,305,2.0,3.0,95,0.00,,,-99.99,,2013-04-27 12:01:00,
2013-04-27 07:11:00,45.0,44.0,-100.00,NW,310,0.0,1.0,95,0.00,,,-99.99,,2013-04-27 12:11:00,
2013-04-27 07:21:00,46.0,45.0,-100.00,SW,225,0.0,1.0,95,0.00,,,-99.99,,2013-04-27 12:21:00,
2013-04-27 07:32:00,47.0,46.0,-100.00,SSE,150,1.0,2.0,95,0.00,,,-99.99,,2013-04-27 12:32:00,
2013-04-27 07:42:00,49.0,48.0,-100.00,SE,135,1.0,2.0,94,0.00,,,-99.99,,2013-04-27 12:42:00,
2013-04-27 07:52:00,51.0,48.0,-100.00,East,95,0.0,1.0,88,0.00,,,-99.99,,2013-04-27 12:52:00,
2013-04-27 08:02:00,51.0,48.0,-100.00,East,95,0.0,1.0,88,0.00,,,-99.99,,2013-04-27 13:02:00,
2013-04-27 08:11:00,53.0,47.0,-100.00,East,95,1.0,1.0,81,0.00,,,-99.99,,2013-04-27 13:11:00,
2013-04-27 08:21:00,53.0,46.0,-100.00,East,100,2.0,3.0,75,0.00,,,-99.99,,2013-04-27 13:21:00,
2013-04-27 08:32:00,54.0,46.0,-100.00,SE,125,3.0,4.0,73,0.00,,,-99.99,,2013-04-27 13:32:00,
2013-04-27 08:41:00,54.0,44.0,-100.00,SE,135,4.0,6.0,68,0.00,,,-99.99,,2013-04-27 13:41:00,
2013-04-27 08:52:00,56.0,45.0,-100.00,ESE,115,4.0,7.0,65,0.00,,,-99.99,,2013-04-27 13:52:00,
2013-04-27 09:02:00,56.0,45.0,-100.00,ESE,115,4.0,7.0,65,0.00,,,-99.99,,2013-04-27 14:02:00,
2013-04-27 09:11:00,56.0,44.0,-100.00,SE,125,7.0,9.0,62,0.00,,,-99.99,,2013-04-27 14:11:00,
2013-04-27 09:21:00,57.0,44.0,-100.00,SE,145,7.0,9.0,61,0.00,,,-99.99,,2013-04-27 14:21:00,
2013-04-27 09:31:00,57.0,44.0,-100.00,SSE,150,4.0,10.0,60,0.00,,,-99.99,,2013-04-27 14:31:00,
2013-04-27 09:41:00,57.0,44.0,-100.00,SSE,150,4.0,10.0,60,0.00,,,-99.99,,2013-04-27 14:41:00,
2013-04-27 09:52:00,58.0,44.0,-100.00,SSE,155,7.0,11.0,59,0.00,,,-99.99,,2013-04-27 14:52:00,
2013-04-27 10:01:00,58.0,44.0,-100.00,SSE,155,7.0,11.0,59,0.00,,,-99.99,,2013-04-27 15:01:00,
2013-04-27 10:11:00,57.0,43.0,-100.00,ESE,105,9.0,11.0,57,0.00,,,-99.99,,2013-04-27 15:11:00,
2013-04-27 10:21:00,58.0,43.0,-100.00,ESE,110,7.0,10.0,56,0.00,,,-99.99,,2013-04-27 15:21:00,
2013-04-27 10:33:00,59.0,44.0,-100.00,SE,130,6.0,11.0,56,0.00,,,-99.99,,2013-04-27 15:33:00,
2013-04-27 10:42:00,59.0,44.0,-100.00,SE,130,6.0,11.0,56,0.00,,,-99.99,,2013-04-27 15:42:00,
2013-04-27 10:52:00,59.0,43.0,-100.00,ESE,120,7.0,12.0,54,0.00,,,-99.99,,2013-04-27 15:52:00,
2013-04-27 11:03:00,60.0,43.0,-100.00,ESE,115,9.0,12.0,53,0.00,,,-99.99,,2013-04-27 16:03:00,
2013-04-27 11:13:00,60.0,42.0,-100.00,SE,130,10.0,14.0,52,0.00,,,-99.99,,2013-04-27 16:13:00,
2013-04-27 11:22:00,60.0,43.0,-100.00,ESE,110,9.0,13.0,52,0.00,,,-99.99,,2013-04-27 16:22:00,
2013-04-27 11:32:00,61.0,43.0,-100.00,SE,125,7.0,13.0,51,0.00,,,-99.99,,2013-04-27 16:32:00,
2013-04-27 11:42:00,60.0,43.0,-100.00,ESE,120,9.0,13.0,52,0.00,,,-99.99,,2013-04-27 16:42:00,
2013-04-27 11:52:00,61.0,44.0,-100.00,SE,125,7.0,12.0,53,0.00,,,-99.99,,2013-04-27 16:52:00,
2013-04-27 12:02:00,61.0,44.0,-100.00,SE,125,7.0,12.0,53,0.00,,,-99.99,,2013-04-27 17:02:00,
2013-04-27 12:11:00,62.0,43.0,-100.00,SE,125,9.0,13.0,49,0.00,,,-99.99,,2013-04-27 17:11:00,
2013-04-27 12:22:00,62.0,43.0,-100.00,SSE,150,11.0,16.0,49,0.00,,,-99.99,,2013-04-27 17:22:00,
2013-04-27 12:32:00,62.0,43.0,-100.00,SE,130,11.0,18.0,50,0.00,,,-99.99,,2013-04-27 17:32:00,
2013-04-27 12:42:00,62.0,43.0,-100.00,SE,130,11.0,18.0,50,0.00,,,-99.99,,2013-04-27 17:42:00,
2013-04-27 12:52:00,62.0,43.0,-100.00,SE,125,10.0,13.0,50,0.00,,,-99.99,,2013-04-27 17:52:00,
2013-04-27 13:02:00,62.0,43.0,-100.00,SE,125,10.0,13.0,50,0.00,,,-99.99,,2013-04-27 18:02:00,
2013-04-27 13:11:00,61.0,44.0,-100.00,SE,130,9.0,17.0,52,0.00,,,-99.99,,2013-04-27 18:11:00,
2013-04-27 13:22:00,62.0,44.0,-100.00,ESE,120,8.0,14.0,50,0.00,,,-99.99,,2013-04-27 18:22:00,
2013-04-27 13:32:00,62.0,43.0,-100.00,ESE,105,8.0,12.0,50,0.00,,,-99.99,,2013-04-27 18:32:00,
2013-04-27 13:41:00,62.0,43.0,-100.00,ESE,105,8.0,12.0,50,0.00,,,-99.99,,2013-04-27 18:41:00,
2013-04-27 13:51:00,62.0,43.0,-100.00,SE,130,7.0,12.0,51,0.00,,,-99.99,,2013-04-27 18:51:00,
2013-04-27 14:02:00,62.0,43.0,-100.00,SE,130,7.0,12.0,51,0.00,,,-99.99,,2013-04-27 19:02:00,
2013-04-27 14:11:00,63.0,44.0,-100.00,SE,140,6.0,12.0,50,0.00,,,-99.99,,2013-04-27 19:11:00,
2013-04-27 14:21:00,62.0,44.0,-100.00,SE,125,7.0,12.0,50,0.00,,,-99.99,,2013-04-27 19:21:00,
2013-04-27 14:32:00,62.0,44.0,-100.00,SE,140,7.0,10.0,50,0.00,,,-99.99,,2013-04-27 19:32:00,
2013-04-27 14:42:00,62.0,44.0,-100.00,ESE,110,7.0,12.0,53,0.00,,,-99.99,,2013-04-27 19:42:00,
2013-04-27 14:52:00,60.0,43.0,-100.00,East,100,7.0,11.0,54,0.00,,,-99.99,,2013-04-27 19:52:00,
2013-04-27 15:02:00,60.0,43.0,-100.00,East,100,7.0,11.0,54,0.00,,,-99.99,,2013-04-27 20:02:00,
2013-04-27 15:11:00,60.0,45.0,-100.00,SE,140,7.0,9.0,56,0.00,,,-99.99,,2013-04-27 20:11:00,
2013-04-27 15:21:00,60.0,44.0,-100.00,SE,130,6.0,10.0,56,0.00,,,-99.99,,2013-04-27 20:21:00,
2013-04-27 15:32:00,60.0,44.0,-100.00,ESE,110,4.0,8.0,55,0.00,,,-99.99,,2013-04-27 20:32:00,
2013-04-27 15:42:00,60.0,45.0,-100.00,SE,125,6.0,9.0,56,0.00,,,-99.99,,2013-04-27 20:42:00,
2013-04-27 15:52:00,61.0,45.0,-100.00,SE,125,6.0,9.0,55,0.00,,,-99.99,,2013-04-27 20:52:00,
2013-04-27 16:02:00,60.0,44.0,-100.00,ESE,105,9.0,12.0,56,0.00,,,-99.99,,2013-04-27 21:02:00,
2013-04-27 16:11:00,59.0,45.0,-100.00,ESE,115,7.0,11.0,58,0.00,,,-99.99,,2013-04-27 21:11:00,
2013-04-27 16:21:00,59.0,45.0,-100.00,ESE,115,9.0,12.0,58,0.00,,,-99.99,,2013-04-27 21:21:00,
2013-04-27 16:33:00,58.0,44.0,-100.00,ESE,105,8.0,12.0,59,0.00,,,-99.99,,2013-04-27 21:33:00,
2013-04-27 16:42:00,58.0,45.0,-100.00,SE,125,9.0,12.0,60,0.00,,,-99.99,,2013-04-27 21:42:00,
2013-04-27 16:53:00,58.0,45.0,-100.00,ESE,110,7.0,10.0,61,0.00,,,-99.99,,2013-04-27 21:53:00,
2013-04-27 17:02:00,58.0,45.0,-100.00,ESE,110,7.0,10.0,61,0.00,,,-99.99,,2013-04-27 22:02:00,
2013-04-27 17:12:00,58.0,45.0,-100.00,SE,135,7.0,9.0,62,0.00,,,-99.99,,2013-04-27 22:12:00,
2013-04-27 17:22:00,58.0,45.0,-100.00,ESE,115,7.0,9.0,62,0.00,,,-99.99,,2013-04-27 22:22:00,
2013-04-27 17:32:00,57.0,44.0,-100.00,East,100,8.0,10.0,61,0.00,,,-99.99,,2013-04-27 22:32:00,
2013-04-27 17:42:00,58.0,44.0,-100.00,ESE,105,7.0,9.0,61,0.00,,,-99.99,,2013-04-27 22:42:00,
2013-04-27 17:52:00,58.0,45.0,-100.00,East,85,4.0,7.0,61,0.00,,,-99.99,,2013-04-27 22:52:00,
2013-04-27 18:02:00,57.0,45.0,-100.00,East,100,4.0,7.0,62,0.00,,,-99.99,,2013-04-27 23:02:00,
2013-04-27 18:11:00,58.0,45.0,-100.00,SE,135,4.0,7.0,62,0.00,,,-99.99,,2013-04-27 23:11:00,
2013-04-27 18:22:00,58.0,45.0,-100.00,SE,135,5.0,6.0,62,0.00,,,-99.99,,2013-04-27 23:22:00,
2013-04-27 18:32:00,58.0,45.0,-100.00,SSE,150,7.0,9.0,62,0.00,,,-99.99,,2013-04-27 23:32:00,
2013-04-27 18:42:00,58.0,45.0,-100.00,ESE,120,4.0,9.0,63,0.00,,,-99.99,,2013-04-27 23:42:00,
2013-04-27 18:52:00,58.0,45.0,-100.00,SE,145,4.0,6.0,63,0.00,,,-99.99,,2013-04-27 23:52:00,
2013-04-27 19:01:00,57.0,45.0,-100.00,ESE,120,3.0,5.0,64,0.00,,,-99.99,,2013-04-28 00:01:00,
2013-04-27 19:11:00,58.0,45.0,-100.00,SSE,155,2.0,5.0,64,0.00,,,-99.99,,2013-04-28 00:11:00,
2013-04-27 19:21:00,58.0,46.0,-100.00,SSE,150,3.0,5.0,65,0.00,,,-99.99,,2013-04-28 00:21:00,
2013-04-27 19:32:00,57.0,46.0,-100.00,SE,145,4.0,5.0,66,0.00,,,-99.99,,2013-04-28 00:32:00,
2013-04-27 19:42:00,57.0,46.0,-100.00,ESE,120,1.0,3.0,66,0.00,,,-99.99,,2013-04-28 00:42:00,
2013-04-27 19:52:00,57.0,45.0,-100.00,SE,140,4.0,4.0,66,0.00,,,-99.99,,2013-04-28 00:52:00,
2013-04-27 20:01:00,56.0,45.0,-100.00,East,100,2.0,4.0,66,0.00,,,-99.99,,2013-04-28 01:01:00,
2013-04-27 20:11:00,56.0,45.0,-100.00,ESE,115,3.0,4.0,68,0.00,,,-99.99,,2013-04-28 01:11:00,
2013-04-27 20:21:00,55.0,45.0,-100.00,ESE,110,3.0,4.0,68,0.00,,,-99.99,,2013-04-28 01:21:00,
2013-04-27 20:32:00,54.0,45.0,-100.00,SE,125,3.0,4.0,70,0.00,,,-99.99,,2013-04-28 01:32:00,
2013-04-27 20:42:00,54.0,45.0,-100.00,SE,135,1.0,3.0,72,0.00,,,-99.99,,2013-04-28 01:42:00,
2013-04-27 20:52:00,54.0,45.0,-100.00,SE,145,1.0,3.0,74,0.00,,,-99.99,,2013-04-28 01:52:00,
2013-04-27 21:02:00,53.0,46.0,-100.00,SE,125,2.0,3.0,75,0.00,,,-99.99,,2013-04-28 02:02:00,
2013-04-27 21:12:00,53.0,46.0,-100.00,SE,135,1.0,3.0,77,0.00,,,-99.99,,2013-04-28 02:12:00,
2013-04-27 21:22:00,53.0,47.0,-100.00,SE,130,1.0,2.0,79,0.00,,,-99.99,,2013-04-28 02:22:00,
2013-04-27 21:32:00,52.0,47.0,-100.00,SE,125,1.0,1.0,80,0.00,,,-99.99,,2013-04-28 02:32:00,
2013-04-27 21:42:00,52.0,47.0,-100.00,SE,130,2.0,3.0,82,0.00,,,-99.99,,2013-04-28 02:42:00,
2013-04-27 21:52:00,51.0,47.0,-100.00,SE,140,3.0,4.0,83,0.00,,,-99.99,,2013-04-28 02:52:00,
2013-04-27 22:01:00,51.0,47.0,-100.00,SE,145,1.0,4.0,85,0.00,,,-99.99,,2013-04-28 03:01:00,
2013-04-27 22:11:00,51.0,47.0,-100.00,SE,145,0.0,1.0,85,0.00,,,-99.99,,2013-04-28 03:11:00,
2013-04-27 22:21:00,51.0,47.0,-100.00,SE,145,0.0,1.0,86,0.00,,,-99.99,,2013-04-28 03:21:00,
2013-04-27 22:32:00,51.0,47.0,-100.00,SE,145,0.0,0.0,86,0.00,,,-99.99,,2013-04-28 03:32:00,
2013-04-27 22:43:00,51.0,47.0,-100.00,SE,145,0.0,0.0,86,0.00,,,-99.99,,2013-04-28 03:43:00,
2013-04-27 22:53:00,51.0,47.0,-100.00,SE,145,0.0,0.0,86,0.00,,,-99.99,,2013-04-28 03:53:00,
2013-04-27 23:02:00,51.0,47.0,-100.00,SE,145,0.0,0.0,86,0.00,,,-99.99,,2013-04-28 04:02:00,
2013-04-27 23:13:00,48.0,46.0,-100.00,WNW,300,3.0,3.0,91,0.00,,,-99.99,,2013-04-28 04:13:00,
2013-04-27 23:22:00,48.0,46.0,-100.00,WNW,300,3.0,3.0,91,0.00,,,-99.99,,2013-04-28 04:22:00,
2013-04-27 23:32:00,48.0,46.0,-100.00,WNW,300,3.0,3.0,91,0.00,,,-99.99,,2013-04-28 04:32:00,
2013-04-27 23:42:00,47.0,45.0,-100.00,WNW,295,3.0,4.0,93,0.00,,,-99.99,,2013-04-28 04:42:00,
2013-04-27 23:52:00,47.0,45.0,-100.00,WNW,295,3.0,4.0,93,0.00,,,-99.99,,2013-04-28 04:52:00,